Location: Bois Neuf
(42.7667°N, 0.6333°E)
Time: 04:38:49
(UTC+00:00)

STARLINK-44 - Pass Details

Date: 07 June 2020
Orbit: 434 x 435 km, 53.0° (Epoch: 10 July)

Event Time Altitude Azimuth Distance (km) Brightness Sun altitude
Exits shadow 00:51:24 - 99° (E) 2,074 6.6 -23.2°
Enters shadow 01:49:32 -67° 233° (SW) 12,222 10.4 -19.5°
Maximum altitude 02:26:09 52° 139° (SE) 567 3.5 -15.9°
